Regional Weather Roundup
Issued by NWS

Home | Current Version | Previous Version | Text Only | Print | Product List | Glossary On
Versions: 1 2 3 4 5 6 7 8 9 10 11 12 13 14 15 16 17 18 19 20 21 22 23 24 25 26 27
000
ASUS45 KTFX 290810
RWRMT
MONTANA REGIONAL WEATHER ROUNDUP
NATIONAL WEATHER SERVICE GREAT FALLS MT
200 AM MDT WED MAR 29 2017

NOTE: "FAIR" INDICATES FEW OR NO CLOUDS BELOW 12000 FEET WITH NO
SIGNIFICANT WEATHER AND/OR OBSTRUCTIONS TO VISIBILITY.

MTZ001>007-043-290900-
WEST OF THE DIVIDE

CITY           SKY/WX    TMP DP  RH WIND       PRES   REMARKS
KALISPELL      CLOUDY    41  33  73 S8        30.14F
MISSOULA       CLOUDY    39  34  82 W5        30.19F
BUTTE          CLOUDY    32  23  69 CALM      30.15F
MULLAN PASS    FOG       28  28 100 VRB6      30.12F VSB 1/2 WCI  22
ANACONDA         N/A     36  25  64 E3        30.15F
DEER LODGE       N/A     37  27  65 CALM      30.18S
EUREKA           N/A     43  30  61 SE10      30.13F
HAMILTON         N/A     45  30  57 E3        30.18F
PLAINS           N/A     44  31  60 CALM      30.18S
RONAN            N/A     41  34  76 CALM      30.19F
$$

MTZ008-052>055-290900-
SOUTHWEST MONTANA

CITY           SKY/WX    TMP DP  RH WIND       PRES   REMARKS
BOZEMAN        CLOUDY    34  25  69 S5        30.15R
DILLON         CLOUDY    36  20  52 SW12      30.14S WCI  28
W YELLOWSTONE  CLOUDY    28  25  86 W3        30.19F
ENNIS          MOCLDY    37  21  52 S12       30.19S WCI  30
$$

MTZ009-010-012-014-046-048-049-054-290900-
EAST SLOPES AND CENTRAL MONTANA

CITY           SKY/WX    TMP DP  RH WIND       PRES   REMARKS
CUT BANK       CLOUDY    38  26  62 W16       30.01S WCI  29
GREAT FALLS    CLOUDY    39  25  57 SW14      30.05S WCI  31
MALMSTROM AFB  CLOUDY    40  26  58 SW13      30.06S
HELENA         CLOUDY    43  27  53 NW5       30.12R
AUGUSTA        MOCLDY    41  24  49 W20       30.04S
BOWMANS CRNR     N/A     38  26  63 SW16      30.05S WCI  29
CHOTEAU          N/A     39  25  56 SW8       30.05S
CONRAD           N/A     38  30  73 SW5       30.04S
FAIRFIELD      MOCLDY    38  23  54 SW6       30.04S
RAYNESFORD       N/A     43  24  47 SW24G33   30.06R
$$

MTZ011-013-016-021-045-047-050-051-290900-
NORTH CENTRAL MONTANA

CITY           SKY/WX    TMP DP  RH WIND       PRES   REMARKS
HAVRE          PTCLDY    39  28  64 SW9       30.02S
LEWISTOWN      CLOUDY    32  22  66 CALM      30.07R
N BAR RANCH    MOCLDY    36  21  55 W6        30.09S WCI  31
CHINOOK          N/A     39  27  60 CALM      30.02S
FORT BENTON      N/A     41  25  52 MISG      30.05S
GEYSER           N/A     41  24  51 W17G26    30.03F
STANFORD         N/A     41  24  51 W17       30.06R
$$

MTZ017>020-022>027-061-062-290900-
NORTHEAST MONTANA

CITY           SKY/WX    TMP DP  RH WIND       PRES   REMARKS
GLASGOW        CLOUDY    39  33  79 SE7       30.02F
JORDAN           N/A     38  33  82 SW6       30.04F
SIDNEY         FOG       30  30 100 SW6       30.08F VSB 1/2 WCI  24
WOLF POINT     CLOUDY    41  36  82 NE7       30.05F
MALTA          CLEAR     36  28  75 S5        30.03S
PLENTYWOOD       N/A     36  36 100 SE6       30.05F VSB 0   WCI  31
POPLAR           N/A     34  30  86 CALM      30.06F
SCOBEY           N/A     40  32  73 SE7       30.00F
$$

MTZ028>42-056>058-290900-
SOUTHCENTRAL AND SOUTHEAST MONTANA

CITY           SKY/WX    TMP DP  RH WIND       PRES   REMARKS
BAKER          PTCLDY    35  32  88 SE3       30.09S
BILLINGS       CLOUDY    42  30  62 SW13      30.07F
LIVINGSTON     CLOUDY    39  22  50 CALM      30.11F
MILES CITY     CLEAR     37  33  85 SE6       30.08F
BIG TIMBER     CLEAR     41  23  48 W18       30.10S
EKALAKA          N/A     39  35  85 SE2       30.06
FORSYTH          N/A     37  36  93 CALM      30.07F
HARLOWTON      MOCLDY    37  23  57 NW15      30.09R WCI  28
LAUREL           N/A     36  21  54 SW2       30.05F
$$

REGIONAL REPORTS...DAKOTAS

CITY           SKY/WX    TMP DP  RH WIND       PRES   REMARKS
WILLISTON      FOG       32  31  96 CALM      30.08F VSB 1/4
MINOT          CLOUDY    42  39  89 CALM      30.08F
DICKINSON      PTCLDY    37  36  96 S8        30.07F WCI  31
BEACH            N/A     32  32 100 CALM      30.11F
TIOGA          FOG       36  36 100 SW5       30.09F VSB 1
WATFORD CITY     N/A     37  37 100 CALM      30.08F
BISMARCK       CLOUDY    44  40  85 CALM      30.14F
GRAND FORKS    CLEAR     32  31  96 CALM      30.18F
FARGO          CLOUDY    37  32  82 CALM      30.17S
BUFFALO SD       N/A     42  41  96 S7        30.04S
RAPID CITY     CLOUDY    41  40  96 S6        30.12R
$$

REGIONAL REPORTS...WYOMING/IDAHO/WASHINGTON

CITY           SKY/WX    TMP DP  RH WIND       PRES   REMARKS
GILLETTE       CLEAR     29  29 100 S3        30.11S
SHERIDAN       CLEAR     29  27  92 S3        30.10F
BUFFALO WY     CLEAR     36  26  67 W7        30.11R WCI  30
CODY           CLEAR     38  25  59 SW7       30.12F
YELLOWSTONE LA   N/A     19  15  84 CALM      30.21F
IDAHO FALLS    CLEAR     37  28  70 S15       30.22F WCI  28
SALMON         CLOUDY    34  25  69 CALM      30.19R
BOISE          CLEAR     40  32  73 SE7       30.24F
SPOKANE        CLOUDY    42  36  79 S7        30.15F
$$

REGIONAL REPORTS...ALBERTA

CITY           SKY/WX    TMP DP  RH WIND       PRES   REMARKS
EDMONTON       MOCLDY    32  30  93 NW2       29.84S
CALGARY        CLEAR     37  18  44 SW3       29.89S
LETHBRIDGE     PTCLDY    45  27  49 W25G33    29.95R
MEDICINE HAT   CLEAR     37  28  70 SW14      29.91F WCI  29
WATERTON GATE    N/A     39  27  60 SW17G28     N/A  WCI  30
CARDSTON         N/A     41  25  52 W12G24      N/A
MILK RIVER       N/A     43  27  52 W22         N/A
$$

REGIONAL REPORTS...SASKATCHEWAN

CITY           SKY/WX    TMP DP  RH WIND       PRES   REMARKS
SWIFT CURRENT  CLOUDY    39  28  65 SW12      29.93S WCI  32
REGINA         FOG       36  36 100 SE14      30.01F VSB 1/4 WCI  27
SASKATOON      CLOUDY    37  34  87 SE8       29.92S WCI  31
CYPRESS HILLS    N/A     36  23  60 SW10        N/A  WCI  28
VAL MARIE        N/A     32  27  80 SW6         N/A  WCI  26
ROCKGLEN         N/A     39  32  75 SW12        N/A  WCI  32
ASSINIBOIA       N/A     34  34 100 N3          N/A
$$




USA.gov is the U.S. government's official web portal to all federal, state and local government web resources and services.